Swayam (41607 NORAD) Tracking and Keplerian Element Data

This shows tracking and keplerian element data for the satellite.

Feedback or suggestion? Click here.




ElementValue
Catalog41607
NameSwayam
Epoch Orbit15658
Epoch Day108.63662373
Epoch Year2019
RAAN171.8087
Inclination97.3714
Eccentricity0.0012001
Argument of Perigee242.3261
Mean Anonmoly117.6758
Mean Motion15.23108297
Decay Rate1.376E-05
L11 41607U 16040J 19108.63662373 .00001376 00000-0 61221-4 0 9997
L22 41607 97.3714 171.8087 0012001 242.3261 117.6758 15.23108297156585

Live tracking and technical data element details for Swayam (NORAD 41607). Swayam can be tracked NOW for your location showing map with azimuth and elevation plus other details from your city location.

Track the satellite on the map from your city or location and see movement details for azimuth, elevation, latitude, longitude, range, height, and movement on the map or in text.







IsCatalogInMostPopularTable: catalog: 41607, numindb: 178
Update: records affected: 1



GetName: 41607 Swayam

Hit Count: updated at: Thu, 25 Apr 2019 19:42:08 GMT